カタログに戻る

IRIDIUM 33 DEB

運用中PO
NORAD 36493·DEBRIS·🇺🇸 United States

打ち上げ Sep 14, 1997 から Baikonur Cosmodrome

Loading…

次のパス (今後24時間)

TLE

最新Source: Space-Track

元期: Sep 13, 2026, 05:56 UTC

1 36493U 97051WK  26256.24752537  .00003836  00000-0  65789-3 0  9991
2 36493  86.3519 249.3137 0012745 118.9506 241.2988 14.68464619785437

AllMySatでIRIDIUM 33 DEBをリアルタイム追跡

Download on the App Store